User: anonymous   Login
Location: Unspecified
(0.0000°N, 0.0000°E)
Time: 00:25:39
(UTC+00:00)
Language:

Picosat 3 - Orbit

View from above orbital plane
View from above orbital plane
View from above satellite
View from above satellite

Ground track
Ground track

The orbit data is extracted from the following two-line orbital elements,

1 26091U 00004J   21023.56463181  .00000204  00000-0  69636-4 0  9994
2 26091 100.2163  47.2558 0028276 264.2675  95.5288 14.49371659104259
Epoch (UTC): 23 January 2021 13:33:04
Eccentricity: 0.0028276
inclination: 100.2163°
perigee height: 707 km
apogee height: 748 km
right ascension of ascending node: 47.2558°
argument of perigee: 264.2675°
revolutions per day: 14.49371659
mean anomaly at epoch: 95.5288°
orbit number at epoch: 10425

The dashed part of the orbit path shows where the satellite is in the earth's shadow,  

DLR